This demonstration page uses our WeatherBlox Daily Observations layout. Learn more.

Left ArrowRight Arrow

44.8408, -93.29828

Hourly Observations for September 25, 2016

Temp ( °F °C ) Dew Point ( °F °C ) Humidity (%) Winds ( mph kmh ) Pressure ( in mb ) Visibility ( mi km ) Precip ( " mm )
12:53 am 00:53 Cloudy 68 20 64 17.8 87 87 SE 12 19 29.94 1014 9 14 0.00 0.00
1:03 am 01:03 Cloudy with Light Rain 68 20 64 18 88 88 SE 10 17 29.94 1014 8 13 0.00 0.00
1:27 am 01:27 Cloudy with Light Rain 68 20 64 17.8 87 87 SSE 9 15 29.94 1014 6 10 0.01 0.25
1:53 am 01:53 Cloudy with Light Rain 68 20 64 17.8 87 87 SSE 8 13 29.95 1014 7 11 0.01 0.25
2:45 am 02:45 Cloudy 68 20 65 18.3 90 90 SE 9 15 29.94 1014 7 11 0.00 0.03
2:53 am 02:53 Cloudy with Light Rain 68 20 65 18.3 90 90 SE 12 19 29.92 1013 6 10 0.00 0.03
3:04 am 03:04 Cloudy 68 20 64 18 88 88 SE 12 19 29.94 1014 7 11 0.00 0.00
3:53 am 03:53 Cloudy with Mist and Fog 68 20 65 18.3 90 90 SSE 12 19 29.90 1013 5 8 0.00 0.03
4:53 am 04:53 Cloudy with Mist and Fog 68 20 65 18.3 90 90 SSE 12 19 29.89 1012 5 8 0.00 0.03
4:58 am 04:58 Cloudy with Light Rain 68 20 64 18 88 88 SSE 9 15 29.91 1013 5 8 0.00 0.00
5:27 am 05:27 Cloudy with Mist and Fog 68 20 65 18.3 90 90 SSE 9 15 29.88 1012 5 8 0.00 0.03
5:34 am 05:34 Cloudy with Mist and Fog 68 20 64 18 88 88 SSE 8 13 29.88 1012 4 6 0.00 0.00
5:53 am 05:53 Cloudy with Mist and Fog 68 20 66 18.9 93 93 SSE 8 13 29.88 1012 4 6 0.00 0.03
6:25 am 06:25 Cloudy with Light Rain 69 20.6 66 18.9 90 90 S 13 20 29.88 1012 5 8 0.00 0.03
6:53 am 06:53 Cloudy with Light Rain 69 20.6 66 18.9 90 90 S 14 22 29.86 1011 5 8 0.02 0.51
7:11 am 07:11 Cloudy with Heavy Rain 66 18.9 63 17.2 90 90 W 14 22 29.88 1012 2 3 0.03 0.76
7:25 am 07:25 Cloudy with Light Rain 64 17.8 61 16.1 90 90 W 8 13 29.88 1012 4 6 0.08 2.03
7:47 am 07:47 Cloudy with Heavy Rain 63 17 61 16 94 94 WSW 10 17 29.91 1013 2 2 0.10 2.54
7:53 am 07:53 Cloudy with Rain 63 17.2 61 16.1 93 93 WSW 6 9 29.89 1012 2 3 0.15 3.81
7:58 am 07:58 Cloudy with Light Rain 63 17.2 61 16.1 93 93 WSW 8 13 29.88 1012 3 5 0.01 0.25
8:03 am 08:03 Cloudy with Light Rain 63 17 61 16 94 94 WSW 7 11 29.88 1012 6 10 0.00 0.00
8:53 am 08:53 Mostly Cloudy with Light Rain 63 17.2 60 15.6 90 90 WSW 9 15 29.89 1012 10 16 0.03 0.76
9:02 am 09:02 Mostly Cloudy 63 17.2 60 15.6 90 90 WSW 12 19 29.91 1013 10 16 0.00 0.03
9:15 am 09:15 Mostly Cloudy 63 17.2 59 15 87 87 WSW 14 22 29.91 1013 10 16 0.00 0.03
9:32 am 09:32 Cloudy 63 17 55 13 77 77 WSW 14 22 29.91 1013 10 16 0.00 0.00
9:53 am 09:53 Mostly Cloudy 61 16.1 53 11.7 75 75 W 12 19 29.90 1012 10 16 0.00 0.03
10:53 am 10:53 Mostly Cloudy 62 16.7 53 11.7 73 73 WSW 10 17 29.89 1012 10 16 0.00 0.00
11:53 am 11:53 Mostly Cloudy 65 18.3 53 11.7 66 66 WSW 14 22 29.89 1012 10 16 0.00 0.00
12:42 pm 12:42 Cloudy 66 19 52 11 60 60 W 15 24 29.91 1013 10 16 0.00 0.00
12:53 pm 12:53 Cloudy 65 18.3 52 11.1 63 63 W 16 26 29.90 1013 10 16 0.00 0.00
1:53 pm 13:53 Cloudy 63 17.2 51 10.6 65 65 WSW 10 17 29.90 1013 10 16 0.00 0.00
2:53 pm 14:53 Cloudy 65 18.3 51 10.6 61 61 WSW 15 24 29.88 1012 10 16 0.00 0.00
3:53 pm 15:53 Cloudy 62 16.7 54 12.2 75 75 W 14 22 29.89 1012 10 16 0.00 0.03
4:53 pm 16:53 Cloudy 61 16.1 53 11.7 75 75 W 12 19 29.89 1012 10 16 0.01 0.25
5:53 pm 17:53 Cloudy 60 15.6 52 11.1 75 75 W 15 24 29.91 1013 10 16 0.01 0.25
6:53 pm 18:53 Cloudy 61 16.1 50 10 67 67 W 16 26 29.93 1013 10 16 0.00 0.00
7:53 pm 19:53 Cloudy 60 15.6 48 8.9 65 65 WNW 14 22 29.95 1014 10 16 0.00 0.00
8:53 pm 20:53 Partly Cloudy 58 14.4 46 7.8 65 65 WNW 12 19 29.98 1015 10 16 0.00 0.00
9:53 pm 21:53 Clear 58 14.4 46 7.8 65 65 W 12 19 29.98 1015 10 16 0.00 0.00
10:53 pm 22:53 Clear 56 13.3 46 7.8 70 70 W 10 17 29.99 1016 10 16 0.00 0.00
11:53 pm 23:53 Clear 56 13.3 44 6.7 65 65 W 13 20 29.98 1015 10 16 0.00 0.00

Powered by AerisWeather